Regional Weather Roundup
Issued by NWS

Home | Current Version | Previous Version | Text Only | Print | Product List | Glossary On
Versions: 1 2 3 4 5 6 7 8 9 10 11 12 13 14 15 16 17 18 19 20 21 22 23 24 25 26 27 28 29 30 31 32 33 34 35 36 37 38 39 40 41 42 43 44 45 46 47 48 49 50
239
ASUS44 KJAN 211903
RWRMS

MISSISSIPPI HOURLY WEATHER ROUNDUP
NATIONAL WEATHER SERVICE JACKSON MS
200 PM CDT TUE OCT 21 2014

NOTE: "FAIR: INDICATES FEW OR NO CLOUDS BELOW 12,000 FEET WITH NO
SIGNIFICANT WEATHER AND/OR OBSTRUCTIONS TO VISIBILITY.

MSZ001>002-007>008-010>013-018>021-025>028-034>036-212000-
NORTHWEST MISSISSIPPI

CITY           SKY/WX    TMP DP  RH WIND       PRES   REMARKS
CLARKSDALE     FAIR      75  55  50 N5        30.06F
CLEVELAND      FAIR      77  61  58 N5        30.04F
GREENWOOD      MOSUNNY   79  57  46 VRB5      30.04F
GREENVILLE     MOSUNNY   79  56  45 VRB3      30.04F
GRENADA          N/A    N/A N/A N/A MISG        N/A
OLIVE BRANCH   SUNNY     73  46  38 N12       30.06F
OXFORD         FAIR      73  48  40 NW9       30.07F
TUNICA         CLEAR     75  50  41 NW8       30.06F
$$

MSZ003>006-009-014>017-022>024-029>033-037>039-212000-
NORTHEAST MISSISSIPPI

CITY           SKY/WX    TMP DP  RH WIND       PRES   REMARKS
COLUMBUS AFB   MOSUNNY   77  56  49 N10       30.02F
CORINTH        FAIR      73  45  35 NW12G17   30.05F
GOLDN TRIANGLE MOSUNNY   81  55  41 NW9       30.02F
STARKVILLE     FAIR      77  52  41 N3        30.02F
TUPELO         SUNNY     76  50  40 N12       30.03F
$$

MSZ040-058-212000-
CENTRAL MISSISSIPPI

CITY           SKY/WX    TMP DP  RH WIND       PRES   REMARKS
JACKSON INTL   SUNNY     77  53  43 W5        30.04F
JACKSON HAWKNS SUNNY     77  55  46 N9        30.04F
MERIDIAN KEY   SUNNY     77  55  46 W7        30.02F
MERIDIAN NAS   MOSUNNY   76  53  44 W5        30.03F
RAYMOND        FAIR      77  72  83 SE3       30.05F
VICKSBURG      SUNNY     77  56  48 CALM      30.04F
$$

MSZ059>079-212000-
SOUTH MISSISSIPPI

CITY           SKY/WX    TMP DP  RH WIND       PRES   REMARKS
BROOKHAVEN     FAIR      75  54  46 CALM      30.06F
HATTIESBURG    SUNNY     78  52  40 VRB5      30.02F
MCCOMB         SUNNY     77  52  41 VRB5      30.03F
NATCHEZ        SUNNY     75  55  50 CALM      30.05F
PINE BELT      SUNNY     79  54  41 CALM      30.04F
$$

MSZ080>082-212000-
COASTAL MISSISSIPPI

CITY           SKY/WX    TMP DP  RH WIND       PRES   REMARKS
BAY ST LOUIS   SUNNY     79  46  31 N7        30.01F
BILOXI         NOT AVBL
PASCAGOULA     SUNNY     81  53  37 N12       29.99F
GULFPORT       SUNNY     80  53  39 N5        29.99F
$$



USA.gov is the U.S. government's official web portal to all federal, state and local government web resources and services.